DW5453 Dortmund DE current weather conditions

sailwx.info

Wind from 261 at 3 knots gusting 11

Air temperature 23.9° C
Dewpoint 14.6° C

Last reported at 2018-Sep-19 18:02 UTC.
Time now 2018-Sep-19 18:21 UTC

Location: N 51°34' E 007°23'.
View on Google Maps.

See reports from other nearby stations

  
Tides and Currents Weather Stations Pressure Air Temp Water Temp Dewpoint Dewpoint Depression Visibility Wind Speed Wind Dir Waves Ship Positions
date/time (UTC)wind fromknots sea level pressurealtimeterstation pressurevisibilityair tempwater tempwave heightnotes
2018-Sep-19 18:02 261 3 gusting 11 23.9
2018-Sep-19 17:57 243 3 gusting 8 24.4
2018-Sep-19 17:52 227 3 gusting 8 24.4
2018-Sep-19 17:47 221 3 gusting 8 24.4
2018-Sep-19 17:42 231 3 gusting 10 25.0
2018-Sep-19 17:37 257 3 gusting 10 25.0
2018-Sep-19 17:32 25.0
2018-Sep-19 17:27 209 3 gusting 13 25.6
2018-Sep-19 17:22 200 4 gusting 13 25.6
2018-Sep-19 17:17 229 4 gusting 13 25.6
2018-Sep-19 17:12 178 3 gusting 10 25.6
2018-Sep-19 17:07 241 4 gusting 11 26.1
2018-Sep-19 17:02 223 4 gusting 11 26.1
2018-Sep-19 16:57 222 5 gusting 14 26.1
2018-Sep-19 16:52 215 4 gusting 14 26.7
2018-Sep-19 16:47 119 4 gusting 14 26.7
2018-Sep-19 16:42 189 4 gusting 13 26.7
2018-Sep-19 16:37 26.7
2018-Sep-19 16:32 182 5 gusting 15 26.7
2018-Sep-19 16:27 177 5 gusting 15 26.7
2018-Sep-19 16:22 219 4 gusting 13 27.2
2018-Sep-19 16:17 249 4 gusting 17 27.2
2018-Sep-19 16:12 27.2
2018-Sep-19 16:07 175 5 gusting 17 27.2
2018-Sep-19 16:02 218 6 gusting 17 27.8
2018-Sep-19 15:57 164 6 gusting 13 27.8
2018-Sep-19 15:52 175 4 gusting 13 27.8
2018-Sep-19 15:47 198 4 gusting 14 27.8
2018-Sep-19 15:42 27.8
2018-Sep-19 15:37 197 5 gusting 14 27.8
2018-Sep-19 15:32 27.8
2018-Sep-19 15:27 210 4 gusting 13 27.8
2018-Sep-19 15:22 193 5 gusting 13 27.8
2018-Sep-19 15:17 244 5 gusting 14 27.8
2018-Sep-19 15:12 27.8
2018-Sep-19 15:07 187 6 gusting 16 27.8
2018-Sep-19 15:02 27.8
2018-Sep-19 14:57 146 5 gusting 16 27.8
2018-Sep-19 14:52 178 6 gusting 16 27.8
2018-Sep-19 14:47 027 6 gusting 17 27.8
2018-Sep-19 14:42 192 6 gusting 19 28.3
2018-Sep-19 14:37 28.3
2018-Sep-19 14:32 220 6 gusting 19 28.3
2018-Sep-19 14:27 161 6 gusting 21 28.3
2018-Sep-19 14:22 161 5 gusting 21 28.3
2018-Sep-19 14:17 202 6 gusting 21 28.3
2018-Sep-19 14:12 217 6 gusting 16 28.3
2018-Sep-19 14:07 185 6 gusting 18 28.3
2018-Sep-19 14:02 184 6 gusting 18 28.3
2018-Sep-19 13:57 189 6 gusting 17 28.3
2018-Sep-19 13:52 167 8 gusting 17 28.3
2018-Sep-19 13:47 197 8 gusting 16 28.3
2018-Sep-19 13:42 181 6 gusting 18 28.3
2018-Sep-19 13:37 192 6 gusting 18 28.3
2018-Sep-19 13:32 28.3
2018-Sep-19 13:27 185 6 gusting 19 28.3
2018-Sep-19 13:22 153 5 gusting 19 28.3
2018-Sep-19 13:17 28.3
2018-Sep-19 13:12 192 6 gusting 16 28.3
2018-Sep-19 13:07 175 5 gusting 14 28.9
2018-Sep-19 13:02 28.9
2018-Sep-19 12:57 223 6 gusting 16 28.3
2018-Sep-19 12:52 195 6 gusting 16 28.3
2018-Sep-19 12:47 138 6 gusting 19 27.8
2018-Sep-19 12:42 27.8
2018-Sep-19 12:37 202 6 gusting 19 27.8
2018-Sep-19 12:32 226 5 gusting 16 27.8
2018-Sep-19 12:27 27.2
2018-Sep-19 12:22 193 4 gusting 14 27.8
2018-Sep-19 12:17 195 4 gusting 21 27.8
2018-Sep-19 12:12 258 5 gusting 21 28.3
2018-Sep-19 12:07 196 5 gusting 21 28.3
2018-Sep-19 12:02 28.3
2018-Sep-19 11:57 209 4 gusting 15 27.8
2018-Sep-19 11:52 27.2
2018-Sep-19 11:47 26.7
2018-Sep-19 11:42 209 6 gusting 21 26.1
2018-Sep-19 11:37 211 6 gusting 21 26.1
2018-Sep-19 11:32 178 8 gusting 20 26.1
2018-Sep-19 11:27 163 9 gusting 19 25.6
2018-Sep-19 11:22 157 8 gusting 19 26.1
2018-Sep-19 11:17 205 8 gusting 20 26.7
2018-Sep-19 11:12 192 8 gusting 20 26.1
2018-Sep-19 11:07 179 6 gusting 20 26.7
2018-Sep-19 11:02 26.7
2018-Sep-19 10:57 189 8 gusting 22 26.1
2018-Sep-19 10:52 176 8 gusting 22 26.7
2018-Sep-19 10:47 161 6 gusting 20 27.2
2018-Sep-19 10:42 172 6 gusting 19 27.2
2018-Sep-19 10:37 200 6 gusting 19 26.7
2018-Sep-19 10:32 202 6 gusting 19 26.7
2018-Sep-19 10:27 213 5 gusting 13 26.7
2018-Sep-19 10:22 205 5 gusting 13 27.2
2018-Sep-19 10:17 26.7
2018-Sep-19 10:12 169 5 gusting 15 26.7
2018-Sep-19 10:07 186 5 gusting 15 26.7
2018-Sep-19 10:02 26.7
2018-Sep-19 09:57 150 5 gusting 17 26.1
2018-Sep-19 09:52 25.6
2018-Sep-19 09:47 187 4 gusting 15 25.6
2018-Sep-19 09:42 155 4 gusting 14 25.6
2018-Sep-19 09:37 136 5 gusting 14 25.6
2018-Sep-19 09:32 196 5 gusting 14 25.6
2018-Sep-19 09:27 232 5 gusting 15 25.0
2018-Sep-19 09:22 142 5 gusting 15 25.0
2018-Sep-19 09:17 155 5 gusting 15 24.4
2018-Sep-19 09:12 215 5 gusting 13 25.0
2018-Sep-19 09:07 179 5 gusting 13 25.0
2018-Sep-19 09:02 24.4
2018-Sep-19 08:57 24.4
2018-Sep-19 08:52 190 3 gusting 9 23.9
2018-Sep-19 08:47 23.9
2018-Sep-19 08:42 163 3 gusting 8 23.3
2018-Sep-19 08:37 150 3 gusting 8 23.3
2018-Sep-19 08:32 23.3
2018-Sep-19 08:27 147 3 gusting 13 22.8
2018-Sep-19 08:22 158 3 gusting 13 22.8
2018-Sep-19 08:17 143 3 gusting 10 22.8
2018-Sep-19 08:12 22.2
2018-Sep-19 08:07 130 3 gusting 10 21.7
2018-Sep-19 08:02 21.1
2018-Sep-19 07:57 160 3 gusting 6 21.1
2018-Sep-19 07:52 137 1 gusting 6 20.6
2018-Sep-19 07:47 148 1 gusting 5 20.6
2018-Sep-19 07:42 148 1 gusting 5 20.0
2018-Sep-19 07:37 145 1 gusting 6 20.0
2018-Sep-19 07:32 145 3 gusting 6 19.4
2018-Sep-19 07:27 150 3 gusting 6 19.4
2018-Sep-19 07:22 171 1 gusting 6 18.9
2018-Sep-19 07:17 18.3
2018-Sep-19 07:12 183 1 gusting 5 17.8
2018-Sep-19 07:07 183 3 gusting 5 17.8
2018-Sep-19 07:02 184 1 gusting 4 17.2
2018-Sep-19 06:57 184 1 gusting 4 16.7
2018-Sep-19 06:52 184 1 gusting 4 16.1
2018-Sep-19 06:47 16.1
2018-Sep-19 06:42 190 1 gusting 4 15.6
2018-Sep-19 06:37 194 1 gusting 4 15.6
2018-Sep-19 06:32 198 1 gusting 3 15.6
2018-Sep-19 06:27 207 0 gusting 3 15.6
2018-Sep-19 06:22 211 15.0
2018-Sep-19 06:17 205 15.0
2018-Sep-19 06:12 211 0 gusting 3 15.0
2018-Sep-19 06:07 207 0 gusting 3 15.0
2018-Sep-19 06:02 238 0 gusting 3 14.4
2018-Sep-19 05:57 237 14.4
2018-Sep-19 05:52 243 14.4
2018-Sep-19 05:47 244 14.4
2018-Sep-19 05:42 240 0 gusting 1 14.4
2018-Sep-19 05:37 239 14.4
2018-Sep-19 05:32 240 14.4
2018-Sep-19 05:27 14.4
2018-Sep-19 05:22 240 14.4
2018-Sep-19 05:17 14.4
2018-Sep-19 05:12 240 0 gusting 0 14.4
2018-Sep-19 05:07 14.4
2018-Sep-19 05:02 240 14.4
2018-Sep-19 04:57 238 14.4
2018-Sep-19 04:52 240 14.4
2018-Sep-19 04:47 14.4
2018-Sep-19 04:42 239 14.4
2018-Sep-19 04:37 238 14.4
2018-Sep-19 04:32 238 15.0
2018-Sep-19 04:27 240 15.0
2018-Sep-19 04:22 240 15.0
2018-Sep-19 04:17 240 15.0
2018-Sep-19 04:12 15.0
2018-Sep-19 04:07 238 15.0
2018-Sep-19 04:02 240 15.0
2018-Sep-19 03:57 240 15.0
2018-Sep-19 03:52 237 15.0
2018-Sep-19 03:47 240 0 gusting 0 15.0
2018-Sep-19 03:42 243 15.6
2018-Sep-19 03:37 240 15.6
2018-Sep-19 03:32 244 15.6
2018-Sep-19 03:27 238 15.6
2018-Sep-19 03:22 238 15.6
2018-Sep-19 03:17 240 15.6
2018-Sep-19 03:12 243 15.6
2018-Sep-19 03:07 16.1
2018-Sep-19 03:02 244 16.1
2018-Sep-19 02:52 240 16.1
2018-Sep-19 02:47 240 16.1
2018-Sep-19 02:42 240 16.1
2018-Sep-19 02:37 240 16.7
2018-Sep-19 02:32 238 16.7
2018-Sep-19 02:27 238 16.7
2018-Sep-19 02:22 244 16.7
2018-Sep-19 02:17 244 16.7
2018-Sep-19 02:12 16.7
2018-Sep-19 02:07 240 16.7
2018-Sep-19 02:02 16.7
2018-Sep-19 01:57 238 17.2
2018-Sep-19 01:52 241 0 gusting 3 17.2
2018-Sep-19 01:47 17.2
2018-Sep-19 01:42 241 17.2
2018-Sep-19 01:37 240 17.2
2018-Sep-19 01:32 241 17.2
2018-Sep-19 01:27 238 17.2
2018-Sep-19 01:22 240 17.2
2018-Sep-19 01:17 241 17.2
2018-Sep-19 01:12 244 17.2
2018-Sep-19 01:07 17.8
2018-Sep-19 01:02 238 0 gusting 4 17.8
2018-Sep-19 00:57 240 0 gusting 6 17.8
2018-Sep-19 00:52 240 0 gusting 6 17.8
2018-Sep-19 00:47 244 0 gusting 6 17.2
2018-Sep-19 00:42 243 0 gusting 6 17.2
2018-Sep-19 00:37 232 1 gusting 5 17.2
2018-Sep-19 00:32 229 0 gusting 5 17.2
2018-Sep-19 00:27 240 0 gusting 4 17.2
2018-Sep-19 00:22 245 0 gusting 4 17.2
2018-Sep-19 00:17 16.7
2018-Sep-19 00:12 242 0 gusting 5 16.7
2018-Sep-19 00:07 240 1 gusting 5 16.7
2018-Sep-19 00:02 242 0 gusting 5 16.7
2018-Sep-18 23:57 242 0 gusting 3 16.7
2018-Sep-18 23:52 242 0 gusting 3 16.7
2018-Sep-18 23:47 239 16.7
2018-Sep-18 23:42 239 16.7
2018-Sep-18 23:37 242 0 gusting 4 16.7
2018-Sep-18 23:32 244 0 gusting 1 17.2
2018-Sep-18 23:27 242 17.2
2018-Sep-18 23:22 17.2
2018-Sep-18 23:17 17.2
2018-Sep-18 23:12 242 17.2
2018-Sep-18 23:07 242 17.2
2018-Sep-18 23:02 17.2
2018-Sep-18 22:57 17.8
2018-Sep-18 22:52 242 17.8
2018-Sep-18 22:47 242 17.8
2018-Sep-18 22:42 245 17.8
2018-Sep-18 22:37 242 17.8
2018-Sep-18 22:32 246 17.8
2018-Sep-18 22:27 240 18.3
2018-Sep-18 22:22 242 18.3
2018-Sep-18 22:17 238 18.3
2018-Sep-18 22:12 245 18.9
2018-Sep-18 22:07 242 18.9
2018-Sep-18 22:02 244 18.9
2018-Sep-18 21:57 242 19.4
2018-Sep-18 21:52 19.4
2018-Sep-18 21:47 242 19.4
2018-Sep-18 21:42 239 19.4
2018-Sep-18 21:37 242 19.4
2018-Sep-18 21:32 240 19.4
2018-Sep-18 21:27 242 20.0
2018-Sep-18 21:22 20.0
2018-Sep-18 21:17 245 20.0
2018-Sep-18 21:12 242 20.0
2018-Sep-18 21:07 240 20.6
2018-Sep-18 21:02 242 20.6
2018-Sep-18 20:57 239 20.6
2018-Sep-18 20:52 242 0 gusting 3 20.6
2018-Sep-18 20:47 242 0 gusting 3 21.1
2018-Sep-18 20:42 245 0 gusting 3 21.1
2018-Sep-18 20:37 239 0 gusting 4 21.1
2018-Sep-18 20:32 242 0 gusting 5 21.1
2018-Sep-18 20:27 21.7
2018-Sep-18 20:22 246 1 gusting 5 21.7
2018-Sep-18 20:17 21.7
2018-Sep-18 20:12 244 1 gusting 4 21.7
2018-Sep-18 20:07 244 1 gusting 4 22.2
2018-Sep-18 20:02 247 0 gusting 5 22.2
2018-Sep-18 19:57 243 1 gusting 5 22.2
2018-Sep-18 19:52 244 1 gusting 5 22.2
2018-Sep-18 19:47 22.8
2018-Sep-18 19:42 22.8
2018-Sep-18 19:37 233 1 gusting 9 22.8
2018-Sep-18 19:32 232 1 gusting 9 23.3
2018-Sep-18 19:27 221 3 gusting 8 23.3
2018-Sep-18 19:22 240 3 gusting 8 23.3
2018-Sep-18 19:17 23.3
2018-Sep-18 19:12 242 3 gusting 13 23.9
2018-Sep-18 19:07 301 4 gusting 13 23.9
2018-Sep-18 19:02 229 4 gusting 13 23.9
2018-Sep-18 18:57 273 5 gusting 13 24.4
2018-Sep-18 18:52 214 4 gusting 13 24.4
2018-Sep-18 18:47 261 4 gusting 14 24.4
2018-Sep-18 18:42 257 4 gusting 14 24.4
2018-Sep-18 18:37 263 4 gusting 14 24.4
2018-Sep-18 18:32 236 5 gusting 10 25.0
2018-Sep-18 18:27 281 4 gusting 13 25.0
2018-Sep-18 18:22 290 5 gusting 13 25.0
2018-Sep-18 18:17 25.0
2018-Sep-18 18:12 272 5 gusting 13 25.6
2018-Sep-18 18:07 263 4 gusting 10 25.6
2018-Sep-18 18:02 25.6
2018-Sep-18 17:57 277 4 gusting 8 25.6
2018-Sep-18 17:52 244 3 gusting 8 26.1
2018-Sep-18 17:47 26.1
2018-Sep-18 17:42 224 1 gusting 9 26.7
2018-Sep-18 17:37 232 1 gusting 10 26.7
2018-Sep-18 17:34 236 3 gusting 10 26.7
2018-Sep-18 17:27 235 3 gusting 9 27.2
2018-Sep-18 17:22 242 3 gusting 9 27.2
2018-Sep-18 17:17 252 3 gusting 15 27.8
2018-Sep-18 17:12 27.8
2018-Sep-18 17:07 242 5 gusting 17 27.8
2018-Sep-18 17:02 203 5 gusting 17 28.3
2018-Sep-18 16:57 223 5 gusting 19 28.3
2018-Sep-18 16:52 28.3
2018-Sep-18 16:47 225 6 gusting 19 28.3
2018-Sep-18 16:42 247 6 gusting 19 28.9
2018-Sep-18 16:37 225 5 gusting 14 28.9
2018-Sep-18 16:32 186 4 gusting 16 28.9
2018-Sep-18 16:27 229 5 gusting 16 28.9
2018-Sep-18 16:22 214 6 gusting 16 29.4
2018-Sep-18 16:17 221 5 gusting 21 29.4
2018-Sep-18 16:12 217 6 gusting 21 29.4
2018-Sep-18 16:07 29.4
2018-Sep-18 16:02 274 8 gusting 21 29.4
2018-Sep-18 15:57 271 6 gusting 13 30.0
2018-Sep-18 15:52 238 5 gusting 13 30.0
2018-Sep-18 15:47 232 5 gusting 16 30.0
2018-Sep-18 15:42 211 6 gusting 16 30.6
2018-Sep-18 15:37 30.6
2018-Sep-18 15:32 202 5 gusting 16 30.6
2018-Sep-18 15:27 242 6 gusting 16 30.6
2018-Sep-18 15:22 227 6 gusting 16 30.6
2018-Sep-18 15:17 223 6 gusting 16 30.6
2018-Sep-18 15:12 195 5 gusting 14 31.1
2018-Sep-18 15:07 200 5 gusting 19 31.1
2018-Sep-18 15:02 194 6 gusting 19 31.1
2018-Sep-18 14:57 232 6 gusting 17 31.1
2018-Sep-18 14:52 160 6 gusting 17 31.1
2018-Sep-18 14:47 182 6 gusting 17 31.1
2018-Sep-18 14:42 238 6 gusting 17 31.1
2018-Sep-18 14:37 205 6 gusting 17 31.1
2018-Sep-18 14:32 178 6 gusting 16 31.7
2018-Sep-18 14:27 193 6 gusting 19 31.7
2018-Sep-18 14:22 217 6 gusting 19 31.7
2018-Sep-18 14:17 31.7
2018-Sep-18 14:12 211 6 gusting 16 31.7
2018-Sep-18 14:07 176 5 gusting 16 31.7
2018-Sep-18 14:02 171 5 gusting 17 31.7
2018-Sep-18 13:57 190 6 gusting 17 31.7
2018-Sep-18 13:52 215 8 gusting 17 31.7
2018-Sep-18 13:47 31.7
2018-Sep-18 13:42 180 6 gusting 17 31.7
2018-Sep-18 13:37 32.2
2018-Sep-18 13:32 169 6 gusting 18 31.7
2018-Sep-18 13:27 31.7
2018-Sep-18 13:17 217 6 gusting 19 31.7
2018-Sep-18 13:12 155 6 gusting 18 31.7
2018-Sep-18 13:07 189 6 gusting 17 31.7
2018-Sep-18 13:02 284 6 gusting 17 31.7
2018-Sep-18 12:57 192 6 gusting 17 31.7
2018-Sep-18 12:52 130 6 gusting 17 31.7
2018-Sep-18 12:47 31.1
2018-Sep-18 12:42 159 6 gusting 16 31.7
2018-Sep-18 12:37 31.7
2018-Sep-18 12:32 211 6 gusting 17 31.7
2018-Sep-18 12:27 31.1
2018-Sep-18 12:22 217 6 gusting 17 31.1
2018-Sep-18 12:17 182 5 gusting 20 31.7
2018-Sep-18 12:12 198 6 gusting 20 31.1
2018-Sep-18 12:07 180 6 gusting 20 31.1
2018-Sep-18 12:02 178 6 gusting 19 30.6
2018-Sep-18 11:57 200 5 gusting 18 31.1
2018-Sep-18 11:52 172 5 gusting 18 31.1
2018-Sep-18 11:47 30.6
2018-Sep-18 11:42 187 6 gusting 18 30.6
2018-Sep-18 11:37 30.6
2018-Sep-18 11:32 211 6 gusting 21 30.6
2018-Sep-18 11:27 175 6 gusting 15 30.0
2018-Sep-18 11:22 190 6 gusting 15 30.6
2018-Sep-18 11:17 184 6 gusting 17 31.1
2018-Sep-18 11:12 236 6 gusting 19 30.0
2018-Sep-18 11:07 217 6 gusting 19 30.6
2018-Sep-18 11:02 192 6 gusting 19 30.0
2018-Sep-18 10:57 159 6 gusting 18 30.6
2018-Sep-18 10:52 213 5 gusting 18 30.6
2018-Sep-18 10:47 180 5 gusting 15 30.6
2018-Sep-18 10:42 205 6 gusting 15 30.6
2018-Sep-18 10:37 243 5 gusting 15 30.0
2018-Sep-18 10:32 167 6 gusting 15 30.6
2018-Sep-18 10:27 175 5 gusting 13 30.0
2018-Sep-18 10:22 197 4 gusting 13 30.0
2018-Sep-18 10:17 193 5 gusting 13 30.0
2018-Sep-18 10:12 184 4 gusting 13 29.4
2018-Sep-18 10:07 184 4 gusting 13 30.0
2018-Sep-18 10:02 204 5 gusting 13 29.4
2018-Sep-18 09:57 151 4 gusting 15 30.0
2018-Sep-18 09:52 176 4 gusting 15 30.0
2018-Sep-18 09:47 164 5 gusting 15 29.4
2018-Sep-18 09:42 222 4 gusting 14 29.4
2018-Sep-18 09:37 113 4 gusting 14 28.9
2018-Sep-18 09:32 118 4 gusting 13 28.9
2018-Sep-18 09:27 160 4 gusting 13 28.3
2018-Sep-18 09:22 180 4 gusting 13 28.3
2018-Sep-18 09:17 140 5 gusting 13 27.8
2018-Sep-18 09:12 172 5 gusting 13 27.8
2018-Sep-18 09:07 27.2
2018-Sep-18 09:02 180 4 gusting 11 27.8
2018-Sep-18 08:57 139 4 gusting 13 27.2
2018-Sep-18 08:52 204 4 gusting 13 27.2
2018-Sep-18 08:47 196 4 gusting 13 26.7
2018-Sep-18 08:42 173 4 gusting 10 26.7
2018-Sep-18 08:37 125 4 gusting 10 26.1
2018-Sep-18 08:32 184 4 gusting 13 26.1
2018-Sep-18 08:27 169 4 gusting 13 26.1
2018-Sep-18 08:22 160 4 gusting 13 25.6
2018-Sep-18 08:17 25.6
2018-Sep-18 08:12 159 4 gusting 13 25.6
2018-Sep-18 08:07 168 5 gusting 13 25.0
2018-Sep-18 08:02 121 5 gusting 10 24.4
2018-Sep-18 07:57 24.4
2018-Sep-18 07:52 178 4 gusting 14 24.4
2018-Sep-18 07:47 122 4 gusting 14 23.9
2018-Sep-18 07:42 188 5 gusting 14 23.9
2018-Sep-18 07:37 079 5 gusting 14 23.3
2018-Sep-18 07:32 123 4 gusting 10 23.3
2018-Sep-18 07:27 135 4 gusting 13 22.8
2018-Sep-18 07:22 150 5 gusting 13 22.8
2018-Sep-18 07:17 22.2
2018-Sep-18 07:12 21.7
2018-Sep-18 07:07 21.7
2018-Sep-18 07:02 122 4 gusting 11 21.1
2018-Sep-18 06:57 20.6
2018-Sep-18 06:52 125 4 gusting 9 20.0
2018-Sep-18 06:47 142 3 gusting 9 19.4
2018-Sep-18 06:42 146 3 gusting 9 18.9
2018-Sep-18 06:37 182 1 gusting 5 18.3
2018-Sep-18 06:32 190 1 gusting 5 18.3
2018-Sep-18 06:27 190 1 gusting 6 17.8
2018-Sep-18 06:22 188 1 gusting 6 17.2
2018-Sep-18 06:17 17.2
2018-Sep-18 06:12 188 1 gusting 6 16.7
2018-Sep-18 06:07 206 1 gusting 4 16.7
2018-Sep-18 06:02 203 1 gusting 4 16.1
2018-Sep-18 05:57 208 1 gusting 3 15.6
2018-Sep-18 05:52 208 1 gusting 3 15.6
2018-Sep-18 05:42 211 1 gusting 4 15.6
2018-Sep-18 05:37 208 3 gusting 4 15.6
2018-Sep-18 05:32 207 1 gusting 4 15.6
2018-Sep-18 05:27 205 1 gusting 3 15.6
2018-Sep-18 05:22 211 1 gusting 3 15.6
2018-Sep-18 05:17 207 1 gusting 3 16.1
2018-Sep-18 05:12 16.1
2018-Sep-18 05:07 208 1 gusting 4 16.1
2018-Sep-18 05:02 208 1 gusting 4 16.1
2018-Sep-18 04:57 16.1
2018-Sep-18 04:52 208 1 gusting 4 16.1
2018-Sep-18 04:47 210 0 gusting 4 16.1
2018-Sep-18 04:42 211 0 gusting 4 16.1
2018-Sep-18 04:37 211 1 gusting 5 15.6
2018-Sep-18 04:32 207 1 gusting 5 15.6
2018-Sep-18 04:27 217 0 gusting 3 15.0
2018-Sep-18 04:22 213 0 gusting 3 15.0
2018-Sep-18 04:17 217 0 gusting 3 14.4
2018-Sep-18 04:12 216 0 gusting 1 14.4
2018-Sep-18 04:07 13.9
2018-Sep-18 04:02 217 13.9
2018-Sep-18 03:57 13.9
2018-Sep-18 03:52 217 0 gusting 3 13.9
2018-Sep-18 03:47 217 1 gusting 3 13.9
2018-Sep-18 03:42 217 1 gusting 3 13.9
2018-Sep-18 03:37 217 1 gusting 3 13.9
2018-Sep-18 03:32 13.3
2018-Sep-18 03:27 217 1 gusting 4 13.3
2018-Sep-18 03:22 13.3
2018-Sep-18 03:17 216 1 gusting 4 13.3
2018-Sep-18 03:12 215 1 gusting 4 13.3
2018-Sep-18 03:07 13.3
2018-Sep-18 03:02 13.3
2018-Sep-18 02:57 220 1 gusting 3 13.3
2018-Sep-18 02:52 217 1 gusting 4 13.3
2018-Sep-18 02:47 220 1 gusting 4 13.3
2018-Sep-18 02:42 217 1 gusting 4 13.3
2018-Sep-18 02:37 13.3
2018-Sep-18 02:32 12.8
2018-Sep-18 02:27 12.8
2018-Sep-18 02:22 217 1 gusting 3 12.8
2018-Sep-18 02:17 214 1 gusting 3 12.8
2018-Sep-18 02:12 217 1 gusting 3 12.8
2018-Sep-18 02:07 217 1 gusting 3 12.8
2018-Sep-18 02:02 216 1 gusting 3 12.8
2018-Sep-18 01:57 217 0 gusting 3 12.8
2018-Sep-18 01:52 12.8
2018-Sep-18 01:47 217 0 gusting 3 12.8
2018-Sep-18 01:42 217 0 gusting 3 12.8
2018-Sep-18 01:37 12.8
2018-Sep-18 01:32 217 1 gusting 3 12.8
2018-Sep-18 01:27 12.8
2018-Sep-18 01:22 214 1 gusting 3 12.8
2018-Sep-18 01:17 217 1 gusting 3 13.3
2018-Sep-18 01:12 217 1 gusting 3 13.3
2018-Sep-18 01:07 217 1 gusting 3 13.3
2018-Sep-18 01:02 12.8
2018-Sep-18 00:57 217 0 gusting 1 12.8
2018-Sep-18 00:52 12.8
2018-Sep-18 00:47 12.8
2018-Sep-18 00:42 221 12.8
2018-Sep-18 00:37 217 12.8
2018-Sep-18 00:32 217 12.8
2018-Sep-18 00:22 217 12.8
2018-Sep-18 00:17 217 13.3
2018-Sep-18 00:12 217 0 gusting 1 13.3
2018-Sep-18 00:07 13.3
2018-Sep-18 00:02 13.3
2018-Sep-17 23:57 217 13.3
2018-Sep-17 23:52 213 13.3
2018-Sep-17 23:47 217 13.3
2018-Sep-17 23:42 217 13.3
2018-Sep-17 23:37 217 13.3
2018-Sep-17 23:32 13.3
2018-Sep-17 23:27 217 13.3
2018-Sep-17 23:22 214 13.3
2018-Sep-17 23:17 217 13.3
2018-Sep-17 23:12 213 13.9
2018-Sep-17 23:07 217 13.9
2018-Sep-17 23:02 217 13.9
2018-Sep-17 22:57 217 13.9
2018-Sep-17 22:52 217 13.9
2018-Sep-17 22:42 217 13.9
2018-Sep-17 22:37 217 0 gusting 1 14.4
2018-Sep-17 22:32 213 0 gusting 1 14.4
2018-Sep-17 22:27 217 0 gusting 1 14.4
2018-Sep-17 22:22 217 0 gusting 1 14.4
2018-Sep-17 22:17 217 0 gusting 1 14.4
2018-Sep-17 22:12 215 0 gusting 1 14.4
2018-Sep-17 22:07 219 0 gusting 1 14.4
2018-Sep-17 22:02 215 0 gusting 1 14.4
2018-Sep-17 21:57 217 0 gusting 1 14.4
2018-Sep-17 21:52 217 0 gusting 1 14.4
2018-Sep-17 21:47 215 0 gusting 1 14.4
2018-Sep-17 21:42 217 14.4
2018-Sep-17 21:37 220 15.0
2018-Sep-17 21:32 217 15.0
2018-Sep-17 21:27 217 15.0
2018-Sep-17 21:22 214 15.0
2018-Sep-17 21:17 220 15.0
2018-Sep-17 21:12 15.0
2018-Sep-17 21:07 217 15.0
2018-Sep-17 21:02 217 15.6
2018-Sep-17 20:57 217 15.6
2018-Sep-17 20:52 15.6
2018-Sep-17 20:47 215 15.6
2018-Sep-17 20:42 15.6
2018-Sep-17 20:37 217 15.6
2018-Sep-17 20:32 15.6
2018-Sep-17 20:27 217 15.6
2018-Sep-17 20:22 217 16.1
2018-Sep-17 20:17 16.1
2018-Sep-17 20:12 219 16.1
2018-Sep-17 20:07 16.1
2018-Sep-17 20:02 217 16.7
2018-Sep-17 19:57 217 16.7
2018-Sep-17 19:52 217 16.7
2018-Sep-17 19:47 16.7
2018-Sep-17 19:42 215 16.7
2018-Sep-17 19:37 217 16.7
2018-Sep-17 19:32 221 17.2
2018-Sep-17 19:27 217 17.2
2018-Sep-17 19:22 217 17.2
2018-Sep-17 19:17 213 17.2
2018-Sep-17 19:12 217 17.8
2018-Sep-17 19:07 220 17.8
2018-Sep-17 18:57 221 18.3
2018-Sep-17 18:52 213 18.3
2018-Sep-17 18:47 221 18.3
2018-Sep-17 18:42 213 18.3
2018-Sep-17 18:37 213 18.9
2018-Sep-17 18:32 217 18.9
2018-Sep-17 18:27 19.4
2018-Sep-17 18:22 221 19.4
2018-Sep-17 18:17 217 20.0
2018-Sep-17 18:14 214 20.0
2018-Sep-17 18:08 20.6
2018-Sep-17 18:02 213 20.6